STARLINK-2087 (47977 NORAD) Tracking and Keplerian Element Data

This shows tracking and keplerian element data for the satellite.

Feedback or suggestion? Click here.




ElementValue
Catalog47977
NameSTARLINK-2087
Epoch Orbit186
Epoch Day170.58334491
Epoch Year2021
RAAN146.7493
Inclination53.0566
Eccentricity0.0001627
Argument of Perigee45.9732
Mean Anonmoly30.385
Mean Motion15.22516219
Decay Rate-0.01059047
L11 47977U 21024A 21170.58334491 -.01059047 00000-0 -49229-1 0 9996
L22 47977 53.0566 146.7493 0001627 45.9732 30.3850 15.22516219 1869

Live tracking and technical data element details for STARLINK-2087 (NORAD 47977). STARLINK-2087 can be tracked NOW for your location showing map with azimuth and elevation plus other details from your city location.

Track the satellite on the map from your city or location and see movement details for azimuth, elevation, latitude, longitude, range, height, and movement on the map or in text.







IsCatalogInMostPopularTable: catalog: 47977, numindb: 42
Update: records affected: 1



GetName: 47977 STARLINK-2087

Hit Count: updated at: Mon, 21 Jun 2021 04:04:05 GMT